Location: Tucson
(32.2217°N, 110.9265°W)
Time: 08:15:20
(UTC-07:00)

Vanguard 3 - Visible Passes

Search period start: 25 October 2021 00:00
Search period end: 04 November 2021 00:00
Orbit: 510 x 3259 km, 33.3° (Epoch: 24 October)

Date Brightness Start Highest point End Pass type
(mag) Time Alt. Az. Time Alt. Az. Time Alt. Az.
25 Oct 8.0 18:02:35 10° W 18:08:29 83° N 18:19:20 10° E visible
25 Oct 8.7 20:13:34 10° W 20:21:58 81° SSW 20:23:54 67° SE visible
25 Oct 10.4 22:25:33 10° W 22:28:26 22° W 22:28:26 22° W visible
26 Oct 8.3 18:59:58 10° W 19:06:45 87° N 19:13:42 28° E visible
26 Oct 9.3 21:11:13 10° W 21:18:14 53° WSW 21:18:14 53° WSW visible
27 Oct 7.8 17:46:33 10° W 17:52:01 81° N 18:01:51 10° E visible
27 Oct 8.6 19:57:25 10° W 20:05:07 75° SSW 20:08:05 55° SE visible
27 Oct 10.3 22:09:21 10° W 22:12:37 23° W 22:12:37 23° W visible
28 Oct 8.1 18:43:54 10° W 18:50:08 89° S 18:58:00 21° ESE visible
28 Oct 9.2 20:55:02 10° W 21:02:33 52° SW 21:02:33 52° SW visible
29 Oct 8.5 19:41:17 10° W 19:48:21 68° SSW 19:52:31 42° SE visible
29 Oct 10.2 21:53:19 10° W 21:57:05 24° WSW 21:57:05 24° WSW visible
30 Oct 7.9 18:27:50 10° W 18:33:34 84° SSW 18:42:36 14° ESE visible
30 Oct 9.2 20:38:57 10° W 20:46:43 46° SSW 20:47:09 45° SSW visible
31 Oct 8.5 19:25:13 10° W 19:31:39 59° SSW 19:37:20 29° SE visible
31 Oct 10.2 21:37:29 10° W 21:41:54 24° SW 21:41:54 24° SW visible
01 Nov 7.8 18:11:47 10° W 18:17:04 76° SSW 18:26:28 10° ESE visible
01 Nov 9.4 20:23:00 10° W 20:29:58 37° SSW 20:32:12 34° S visible
02 Nov 8.6 19:09:11 10° W 19:15:04 50° SSW 19:22:37 18° SE visible
02 Nov 10.2 21:21:57 10° WSW 21:27:13 21° SW 21:27:13 21° SW visible
03 Nov 7.8 17:55:45 10° W 18:00:37 66° SSW 18:08:58 10° ESE visible
03 Nov 9.6 20:07:11 10° W 20:13:19 30° SSW 20:17:48 22° SSE visible
